<?xml version="1.0"?>
<gpx xmlns="http://www.topografix.com/GPX/1/1" xmlns:xsi="http://www.w3.org/2001/XMLSchema-instance" version="1.1" creator="GPX RubyGem 1.0.0 -- http://dougfales.github.io/gpx/" xsi:schemaLocation="http://www.topografix.com/GPX/1/1 http://www.topografix.com/GPX/1/1/gpx.xsd">
  <metadata>
    <name/>
    <time>2026-05-07T02:03:38+00:00</time>
    <bound minlat="90.0" minlon="180.0" maxlat="-90.0" maxlon="-180.0"/>
  </metadata>
  <trk>
    <name/>
    <trkseg>
      <trkpt lat="46.532768" lon="12.070611">
        <time>1970-01-01T00:00:00+00:00</time>
        <ele>2041.0</ele>
      </trkpt>
      <trkpt lat="46.532812" lon="12.070669">
        <time>1970-01-01T00:00:00+00:00</time>
        <ele>2041.0</ele>
      </trkpt>
      <trkpt lat="46.533207" lon="12.071372">
        <time>1970-01-01T00:00:00+00:00</time>
        <ele>2043.0</ele>
      </trkpt>
      <trkpt lat="46.533319" lon="12.071505">
        <time>1970-01-01T00:00:00+00:00</time>
        <ele>2045.0</ele>
      </trkpt>
      <trkpt lat="46.533602" lon="12.071751">
        <time>1970-01-01T00:00:00+00:00</time>
        <ele>2052.0</ele>
      </trkpt>
      <trkpt lat="46.533682" lon="12.072023">
        <time>1970-01-01T00:00:00+00:00</time>
        <ele>2054.0</ele>
      </trkpt>
      <trkpt lat="46.533864" lon="12.072477">
        <time>1970-01-01T00:00:00+00:00</time>
        <ele>2065.0</ele>
      </trkpt>
      <trkpt lat="46.533832" lon="12.072771">
        <time>1970-01-01T00:00:00+00:00</time>
        <ele>2062.0</ele>
      </trkpt>
      <trkpt lat="46.533837" lon="12.072957">
        <time>1970-01-01T00:00:00+00:00</time>
        <ele>2062.0</ele>
      </trkpt>
      <trkpt lat="46.534019" lon="12.073587">
        <time>1970-01-01T00:00:00+00:00</time>
        <ele>2074.0</ele>
      </trkpt>
      <trkpt lat="46.534089" lon="12.073749">
        <time>1970-01-01T00:00:00+00:00</time>
        <ele>2080.0</ele>
      </trkpt>
      <trkpt lat="46.534144" lon="12.073735">
        <time>1970-01-01T00:00:00+00:00</time>
        <ele>2085.0</ele>
      </trkpt>
      <trkpt lat="46.534219" lon="12.07391">
        <time>1970-01-01T00:00:00+00:00</time>
        <ele>2093.0</ele>
      </trkpt>
      <trkpt lat="46.534235" lon="12.073841">
        <time>1970-01-01T00:00:00+00:00</time>
        <ele>2094.0</ele>
      </trkpt>
      <trkpt lat="46.534292" lon="12.073916">
        <time>1970-01-01T00:00:00+00:00</time>
        <ele>2099.0</ele>
      </trkpt>
      <trkpt lat="46.53432" lon="12.073798">
        <time>1970-01-01T00:00:00+00:00</time>
        <ele>2101.0</ele>
      </trkpt>
      <trkpt lat="46.534374" lon="12.07415">
        <time>1970-01-01T00:00:00+00:00</time>
        <ele>2112.0</ele>
      </trkpt>
      <trkpt lat="46.534173" lon="12.074243">
        <time>1970-01-01T00:00:00+00:00</time>
        <ele>2097.0</ele>
      </trkpt>
      <trkpt lat="46.534295" lon="12.07434">
        <time>1970-01-01T00:00:00+00:00</time>
        <ele>2112.0</ele>
      </trkpt>
      <trkpt lat="46.534194" lon="12.074402">
        <time>1970-01-01T00:00:00+00:00</time>
        <ele>2105.0</ele>
      </trkpt>
      <trkpt lat="46.534215" lon="12.074426">
        <time>1970-01-01T00:00:00+00:00</time>
        <ele>2108.0</ele>
      </trkpt>
      <trkpt lat="46.534415" lon="12.074488">
        <time>1970-01-01T00:00:00+00:00</time>
        <ele>2128.0</ele>
      </trkpt>
      <trkpt lat="46.534572" lon="12.074586">
        <time>1970-01-01T00:00:00+00:00</time>
        <ele>2140.0</ele>
      </trkpt>
      <trkpt lat="46.534542" lon="12.07471">
        <time>1970-01-01T00:00:00+00:00</time>
        <ele>2145.0</ele>
      </trkpt>
      <trkpt lat="46.534644" lon="12.074789">
        <time>1970-01-01T00:00:00+00:00</time>
        <ele>2152.0</ele>
      </trkpt>
      <trkpt lat="46.53458" lon="12.074838">
        <time>1970-01-01T00:00:00+00:00</time>
        <ele>2152.0</ele>
      </trkpt>
      <trkpt lat="46.534694" lon="12.074999">
        <time>1970-01-01T00:00:00+00:00</time>
        <ele>2163.0</ele>
      </trkpt>
      <trkpt lat="46.534667" lon="12.07509">
        <time>1970-01-01T00:00:00+00:00</time>
        <ele>2167.0</ele>
      </trkpt>
      <trkpt lat="46.534713" lon="12.075122">
        <time>1970-01-01T00:00:00+00:00</time>
        <ele>2169.0</ele>
      </trkpt>
      <trkpt lat="46.534702" lon="12.075212">
        <time>1970-01-01T00:00:00+00:00</time>
        <ele>2173.0</ele>
      </trkpt>
      <trkpt lat="46.534788" lon="12.075294">
        <time>1970-01-01T00:00:00+00:00</time>
        <ele>2179.0</ele>
      </trkpt>
      <trkpt lat="46.534726" lon="12.075404">
        <time>1970-01-01T00:00:00+00:00</time>
        <ele>2180.0</ele>
      </trkpt>
      <trkpt lat="46.534818" lon="12.075428">
        <time>1970-01-01T00:00:00+00:00</time>
        <ele>2184.0</ele>
      </trkpt>
      <trkpt lat="46.534818" lon="12.075538">
        <time>1970-01-01T00:00:00+00:00</time>
        <ele>2186.0</ele>
      </trkpt>
      <trkpt lat="46.534947" lon="12.075561">
        <time>1970-01-01T00:00:00+00:00</time>
        <ele>2193.0</ele>
      </trkpt>
      <trkpt lat="46.534905" lon="12.075646">
        <time>1970-01-01T00:00:00+00:00</time>
        <ele>2193.0</ele>
      </trkpt>
      <trkpt lat="46.534995" lon="12.075607">
        <time>1970-01-01T00:00:00+00:00</time>
        <ele>2197.0</ele>
      </trkpt>
      <trkpt lat="46.534961" lon="12.075782">
        <time>1970-01-01T00:00:00+00:00</time>
        <ele>2199.0</ele>
      </trkpt>
      <trkpt lat="46.535072" lon="12.075722">
        <time>1970-01-01T00:00:00+00:00</time>
        <ele>2204.0</ele>
      </trkpt>
      <trkpt lat="46.535004" lon="12.075881">
        <time>1970-01-01T00:00:00+00:00</time>
        <ele>2203.0</ele>
      </trkpt>
      <trkpt lat="46.53509" lon="12.075885">
        <time>1970-01-01T00:00:00+00:00</time>
        <ele>2208.0</ele>
      </trkpt>
      <trkpt lat="46.535052" lon="12.075985">
        <time>1970-01-01T00:00:00+00:00</time>
        <ele>2206.0</ele>
      </trkpt>
      <trkpt lat="46.535129" lon="12.075975">
        <time>1970-01-01T00:00:00+00:00</time>
        <ele>2210.0</ele>
      </trkpt>
      <trkpt lat="46.535237" lon="12.075762">
        <time>1970-01-01T00:00:00+00:00</time>
        <ele>2216.0</ele>
      </trkpt>
      <trkpt lat="46.535178" lon="12.07596">
        <time>1970-01-01T00:00:00+00:00</time>
        <ele>2213.0</ele>
      </trkpt>
      <trkpt lat="46.535187" lon="12.076139">
        <time>1970-01-01T00:00:00+00:00</time>
        <ele>2212.0</ele>
      </trkpt>
      <trkpt lat="46.535273" lon="12.076222">
        <time>1970-01-01T00:00:00+00:00</time>
        <ele>2218.0</ele>
      </trkpt>
      <trkpt lat="46.535328" lon="12.076454">
        <time>1970-01-01T00:00:00+00:00</time>
        <ele>2217.0</ele>
      </trkpt>
      <trkpt lat="46.535453" lon="12.076662">
        <time>1970-01-01T00:00:00+00:00</time>
        <ele>2223.0</ele>
      </trkpt>
      <trkpt lat="46.535532" lon="12.076851">
        <time>1970-01-01T00:00:00+00:00</time>
        <ele>2225.0</ele>
      </trkpt>
      <trkpt lat="46.535698" lon="12.076842">
        <time>1970-01-01T00:00:00+00:00</time>
        <ele>2236.0</ele>
      </trkpt>
      <trkpt lat="46.535725" lon="12.076997">
        <time>1970-01-01T00:00:00+00:00</time>
        <ele>2235.0</ele>
      </trkpt>
      <trkpt lat="46.535773" lon="12.077109">
        <time>1970-01-01T00:00:00+00:00</time>
        <ele>2237.0</ele>
      </trkpt>
      <trkpt lat="46.535858" lon="12.077168">
        <time>1970-01-01T00:00:00+00:00</time>
        <ele>2243.0</ele>
      </trkpt>
      <trkpt lat="46.535854" lon="12.077482">
        <time>1970-01-01T00:00:00+00:00</time>
        <ele>2240.0</ele>
      </trkpt>
      <trkpt lat="46.535921" lon="12.07757">
        <time>1970-01-01T00:00:00+00:00</time>
        <ele>2244.0</ele>
      </trkpt>
      <trkpt lat="46.535947" lon="12.077665">
        <time>1970-01-01T00:00:00+00:00</time>
        <ele>2245.0</ele>
      </trkpt>
      <trkpt lat="46.536018" lon="12.077685">
        <time>1970-01-01T00:00:00+00:00</time>
        <ele>2250.0</ele>
      </trkpt>
      <trkpt lat="46.536061" lon="12.077574">
        <time>1970-01-01T00:00:00+00:00</time>
        <ele>2254.0</ele>
      </trkpt>
      <trkpt lat="46.536212" lon="12.077619">
        <time>1970-01-01T00:00:00+00:00</time>
        <ele>2260.0</ele>
      </trkpt>
      <trkpt lat="46.536265" lon="12.077456">
        <time>1970-01-01T00:00:00+00:00</time>
        <ele>2264.0</ele>
      </trkpt>
      <trkpt lat="46.536315" lon="12.077376">
        <time>1970-01-01T00:00:00+00:00</time>
        <ele>2266.0</ele>
      </trkpt>
      <trkpt lat="46.536579" lon="12.077118">
        <time>1970-01-01T00:00:00+00:00</time>
        <ele>2270.0</ele>
      </trkpt>
      <trkpt lat="46.536723" lon="12.077081">
        <time>1970-01-01T00:00:00+00:00</time>
        <ele>2268.0</ele>
      </trkpt>
      <trkpt lat="46.537016" lon="12.077096">
        <time>1970-01-01T00:00:00+00:00</time>
        <ele>2259.0</ele>
      </trkpt>
      <trkpt lat="46.537241" lon="12.076981">
        <time>1970-01-01T00:00:00+00:00</time>
        <ele>2255.0</ele>
      </trkpt>
      <trkpt lat="46.53741" lon="12.076688">
        <time>1970-01-01T00:00:00+00:00</time>
        <ele>2261.0</ele>
      </trkpt>
      <trkpt lat="46.537561" lon="12.076603">
        <time>1970-01-01T00:00:00+00:00</time>
        <ele>2260.0</ele>
      </trkpt>
      <trkpt lat="46.537823" lon="12.076625">
        <time>1970-01-01T00:00:00+00:00</time>
        <ele>2260.0</ele>
      </trkpt>
      <trkpt lat="46.539061" lon="12.077203">
        <time>1970-01-01T00:00:00+00:00</time>
        <ele>2285.0</ele>
      </trkpt>
      <trkpt lat="46.539372" lon="12.077556">
        <time>1970-01-01T00:00:00+00:00</time>
        <ele>2291.0</ele>
      </trkpt>
      <trkpt lat="46.539925" lon="12.077966">
        <time>1970-01-01T00:00:00+00:00</time>
        <ele>2298.0</ele>
      </trkpt>
      <trkpt lat="46.540343" lon="12.078079">
        <time>1970-01-01T00:00:00+00:00</time>
        <ele>2306.0</ele>
      </trkpt>
      <trkpt lat="46.540576" lon="12.078206">
        <time>1970-01-01T00:00:00+00:00</time>
        <ele>2316.0</ele>
      </trkpt>
      <trkpt lat="46.540707" lon="12.078601">
        <time>1970-01-01T00:00:00+00:00</time>
        <ele>2313.0</ele>
      </trkpt>
      <trkpt lat="46.540896" lon="12.078643">
        <time>1970-01-01T00:00:00+00:00</time>
        <ele>2336.0</ele>
      </trkpt>
      <trkpt lat="46.540979" lon="12.078883">
        <time>1970-01-01T00:00:00+00:00</time>
        <ele>2336.0</ele>
      </trkpt>
      <trkpt lat="46.541163" lon="12.07906">
        <time>1970-01-01T00:00:00+00:00</time>
        <ele>2347.0</ele>
      </trkpt>
      <trkpt lat="46.541396" lon="12.079427">
        <time>1970-01-01T00:00:00+00:00</time>
        <ele>2349.0</ele>
      </trkpt>
      <trkpt lat="46.541877" lon="12.079815">
        <time>1970-01-01T00:00:00+00:00</time>
        <ele>2374.0</ele>
      </trkpt>
      <trkpt lat="46.542139" lon="12.08014">
        <time>1970-01-01T00:00:00+00:00</time>
        <ele>2379.0</ele>
      </trkpt>
      <trkpt lat="46.542265" lon="12.080641">
        <time>1970-01-01T00:00:00+00:00</time>
        <ele>2376.0</ele>
      </trkpt>
      <trkpt lat="46.542323" lon="12.080973">
        <time>1970-01-01T00:00:00+00:00</time>
        <ele>2380.0</ele>
      </trkpt>
      <trkpt lat="46.542654" lon="12.081523">
        <time>1970-01-01T00:00:00+00:00</time>
        <ele>2398.0</ele>
      </trkpt>
      <trkpt lat="46.542794" lon="12.081678">
        <time>1970-01-01T00:00:00+00:00</time>
        <ele>2392.0</ele>
      </trkpt>
      <trkpt lat="46.542862" lon="12.081544">
        <time>1970-01-01T00:00:00+00:00</time>
        <ele>2406.0</ele>
      </trkpt>
      <trkpt lat="46.542731" lon="12.081325">
        <time>1970-01-01T00:00:00+00:00</time>
        <ele>2413.0</ele>
      </trkpt>
      <trkpt lat="46.542726" lon="12.081128">
        <time>1970-01-01T00:00:00+00:00</time>
        <ele>2421.0</ele>
      </trkpt>
      <trkpt lat="46.542853" lon="12.08117">
        <time>1970-01-01T00:00:00+00:00</time>
        <ele>2428.0</ele>
      </trkpt>
      <trkpt lat="46.542765" lon="12.08081">
        <time>1970-01-01T00:00:00+00:00</time>
        <ele>2428.0</ele>
      </trkpt>
      <trkpt lat="46.54279" lon="12.080591">
        <time>1970-01-01T00:00:00+00:00</time>
        <ele>2434.0</ele>
      </trkpt>
      <trkpt lat="46.542882" lon="12.080606">
        <time>1970-01-01T00:00:00+00:00</time>
        <ele>2443.0</ele>
      </trkpt>
      <trkpt lat="46.543023" lon="12.080711">
        <time>1970-01-01T00:00:00+00:00</time>
        <ele>2453.0</ele>
      </trkpt>
      <trkpt lat="46.543027" lon="12.080507">
        <time>1970-01-01T00:00:00+00:00</time>
        <ele>2460.0</ele>
      </trkpt>
      <trkpt lat="46.543124" lon="12.080478">
        <time>1970-01-01T00:00:00+00:00</time>
        <ele>2470.0</ele>
      </trkpt>
      <trkpt lat="46.54344" lon="12.08069">
        <time>1970-01-01T00:00:00+00:00</time>
        <ele>2489.0</ele>
      </trkpt>
      <trkpt lat="46.543557" lon="12.080577">
        <time>1970-01-01T00:00:00+00:00</time>
        <ele>2500.0</ele>
      </trkpt>
      <trkpt lat="46.543464" lon="12.08033">
        <time>1970-01-01T00:00:00+00:00</time>
        <ele>2502.0</ele>
      </trkpt>
      <trkpt lat="46.543566" lon="12.080246">
        <time>1970-01-01T00:00:00+00:00</time>
        <ele>2511.0</ele>
      </trkpt>
      <trkpt lat="46.543804" lon="12.080267">
        <time>1970-01-01T00:00:00+00:00</time>
        <ele>2522.0</ele>
      </trkpt>
      <trkpt lat="46.544066" lon="12.079963">
        <time>1970-01-01T00:00:00+00:00</time>
        <ele>2544.0</ele>
      </trkpt>
      <trkpt lat="46.544183" lon="12.079688">
        <time>1970-01-01T00:00:00+00:00</time>
        <ele>2559.0</ele>
      </trkpt>
      <trkpt lat="46.54453" lon="12.079547">
        <time>1970-01-01T00:00:00+00:00</time>
        <ele>2569.0</ele>
      </trkpt>
      <trkpt lat="46.544542" lon="12.079321">
        <time>1970-01-01T00:00:00+00:00</time>
        <ele>2581.0</ele>
      </trkpt>
      <trkpt lat="46.544437" lon="12.078531">
        <time>1970-01-01T00:00:00+00:00</time>
        <ele>2601.0</ele>
      </trkpt>
      <trkpt lat="46.545163" lon="12.079462">
        <time>1970-01-01T00:00:00+00:00</time>
        <ele>2561.0</ele>
      </trkpt>
      <trkpt lat="46.545265" lon="12.079624">
        <time>1970-01-01T00:00:00+00:00</time>
        <ele>2556.0</ele>
      </trkpt>
      <trkpt lat="46.545416" lon="12.079942">
        <time>1970-01-01T00:00:00+00:00</time>
        <ele>2553.0</ele>
      </trkpt>
      <trkpt lat="46.54561" lon="12.080147">
        <time>1970-01-01T00:00:00+00:00</time>
        <ele>2549.0</ele>
      </trkpt>
      <trkpt lat="46.545761" lon="12.080231">
        <time>1970-01-01T00:00:00+00:00</time>
        <ele>2545.0</ele>
      </trkpt>
      <trkpt lat="46.545994" lon="12.080514">
        <time>1970-01-01T00:00:00+00:00</time>
        <ele>2538.0</ele>
      </trkpt>
      <trkpt lat="46.546149" lon="12.080782">
        <time>1970-01-01T00:00:00+00:00</time>
        <ele>2534.0</ele>
      </trkpt>
      <trkpt lat="46.546295" lon="12.081128">
        <time>1970-01-01T00:00:00+00:00</time>
        <ele>2534.0</ele>
      </trkpt>
      <trkpt lat="46.546523" lon="12.081213">
        <time>1970-01-01T00:00:00+00:00</time>
        <ele>2537.0</ele>
      </trkpt>
      <trkpt lat="46.546746" lon="12.081269">
        <time>1970-01-01T00:00:00+00:00</time>
        <ele>2530.0</ele>
      </trkpt>
      <trkpt lat="46.546916" lon="12.081565">
        <time>1970-01-01T00:00:00+00:00</time>
        <ele>2527.0</ele>
      </trkpt>
      <trkpt lat="46.547013" lon="12.082017">
        <time>1970-01-01T00:00:00+00:00</time>
        <ele>2526.0</ele>
      </trkpt>
      <trkpt lat="46.547023" lon="12.082525">
        <time>1970-01-01T00:00:00+00:00</time>
        <ele>2530.0</ele>
      </trkpt>
      <trkpt lat="46.547197" lon="12.082871">
        <time>1970-01-01T00:00:00+00:00</time>
        <ele>2515.0</ele>
      </trkpt>
      <trkpt lat="46.547263" lon="12.08325">
        <time>1970-01-01T00:00:00+00:00</time>
        <ele>2507.0</ele>
      </trkpt>
      <trkpt lat="46.547195" lon="12.083505">
        <time>1970-01-01T00:00:00+00:00</time>
        <ele>2503.0</ele>
      </trkpt>
      <trkpt lat="46.547166" lon="12.084083">
        <time>1970-01-01T00:00:00+00:00</time>
        <ele>2489.0</ele>
      </trkpt>
      <trkpt lat="46.547302" lon="12.084337">
        <time>1970-01-01T00:00:00+00:00</time>
        <ele>2483.0</ele>
      </trkpt>
      <trkpt lat="46.547586" lon="12.084534">
        <time>1970-01-01T00:00:00+00:00</time>
        <ele>2477.0</ele>
      </trkpt>
      <trkpt lat="46.547586" lon="12.084534">
        <time>1970-01-01T00:00:00+00:00</time>
        <ele>2477.0</ele>
      </trkpt>
      <trkpt lat="46.547302" lon="12.084337">
        <time>1970-01-01T00:00:00+00:00</time>
        <ele>2483.0</ele>
      </trkpt>
      <trkpt lat="46.547166" lon="12.084083">
        <time>1970-01-01T00:00:00+00:00</time>
        <ele>2489.0</ele>
      </trkpt>
      <trkpt lat="46.547195" lon="12.083505">
        <time>1970-01-01T00:00:00+00:00</time>
        <ele>2503.0</ele>
      </trkpt>
      <trkpt lat="46.547263" lon="12.08325">
        <time>1970-01-01T00:00:00+00:00</time>
        <ele>2507.0</ele>
      </trkpt>
      <trkpt lat="46.547197" lon="12.082871">
        <time>1970-01-01T00:00:00+00:00</time>
        <ele>2515.0</ele>
      </trkpt>
      <trkpt lat="46.547023" lon="12.082525">
        <time>1970-01-01T00:00:00+00:00</time>
        <ele>2530.0</ele>
      </trkpt>
      <trkpt lat="46.547013" lon="12.082017">
        <time>1970-01-01T00:00:00+00:00</time>
        <ele>2526.0</ele>
      </trkpt>
      <trkpt lat="46.546916" lon="12.081565">
        <time>1970-01-01T00:00:00+00:00</time>
        <ele>2527.0</ele>
      </trkpt>
      <trkpt lat="46.546746" lon="12.081269">
        <time>1970-01-01T00:00:00+00:00</time>
        <ele>2530.0</ele>
      </trkpt>
      <trkpt lat="46.546523" lon="12.081213">
        <time>1970-01-01T00:00:00+00:00</time>
        <ele>2537.0</ele>
      </trkpt>
      <trkpt lat="46.546295" lon="12.081128">
        <time>1970-01-01T00:00:00+00:00</time>
        <ele>2534.0</ele>
      </trkpt>
      <trkpt lat="46.546149" lon="12.080782">
        <time>1970-01-01T00:00:00+00:00</time>
        <ele>2534.0</ele>
      </trkpt>
      <trkpt lat="46.545994" lon="12.080514">
        <time>1970-01-01T00:00:00+00:00</time>
        <ele>2538.0</ele>
      </trkpt>
      <trkpt lat="46.545761" lon="12.080231">
        <time>1970-01-01T00:00:00+00:00</time>
        <ele>2545.0</ele>
      </trkpt>
      <trkpt lat="46.54561" lon="12.080147">
        <time>1970-01-01T00:00:00+00:00</time>
        <ele>2549.0</ele>
      </trkpt>
      <trkpt lat="46.545416" lon="12.079942">
        <time>1970-01-01T00:00:00+00:00</time>
        <ele>2553.0</ele>
      </trkpt>
      <trkpt lat="46.545265" lon="12.079624">
        <time>1970-01-01T00:00:00+00:00</time>
        <ele>2556.0</ele>
      </trkpt>
      <trkpt lat="46.545163" lon="12.079462">
        <time>1970-01-01T00:00:00+00:00</time>
        <ele>2561.0</ele>
      </trkpt>
      <trkpt lat="46.544437" lon="12.078531">
        <time>1970-01-01T00:00:00+00:00</time>
        <ele>2601.0</ele>
      </trkpt>
      <trkpt lat="46.544542" lon="12.079321">
        <time>1970-01-01T00:00:00+00:00</time>
        <ele>2581.0</ele>
      </trkpt>
      <trkpt lat="46.54453" lon="12.079547">
        <time>1970-01-01T00:00:00+00:00</time>
        <ele>2569.0</ele>
      </trkpt>
      <trkpt lat="46.544183" lon="12.079688">
        <time>1970-01-01T00:00:00+00:00</time>
        <ele>2559.0</ele>
      </trkpt>
      <trkpt lat="46.544066" lon="12.079963">
        <time>1970-01-01T00:00:00+00:00</time>
        <ele>2544.0</ele>
      </trkpt>
      <trkpt lat="46.543804" lon="12.080267">
        <time>1970-01-01T00:00:00+00:00</time>
        <ele>2522.0</ele>
      </trkpt>
      <trkpt lat="46.543566" lon="12.080246">
        <time>1970-01-01T00:00:00+00:00</time>
        <ele>2511.0</ele>
      </trkpt>
      <trkpt lat="46.543464" lon="12.08033">
        <time>1970-01-01T00:00:00+00:00</time>
        <ele>2502.0</ele>
      </trkpt>
      <trkpt lat="46.543557" lon="12.080577">
        <time>1970-01-01T00:00:00+00:00</time>
        <ele>2500.0</ele>
      </trkpt>
      <trkpt lat="46.54344" lon="12.08069">
        <time>1970-01-01T00:00:00+00:00</time>
        <ele>2489.0</ele>
      </trkpt>
      <trkpt lat="46.543124" lon="12.080478">
        <time>1970-01-01T00:00:00+00:00</time>
        <ele>2470.0</ele>
      </trkpt>
      <trkpt lat="46.543027" lon="12.080507">
        <time>1970-01-01T00:00:00+00:00</time>
        <ele>2460.0</ele>
      </trkpt>
      <trkpt lat="46.543023" lon="12.080711">
        <time>1970-01-01T00:00:00+00:00</time>
        <ele>2453.0</ele>
      </trkpt>
      <trkpt lat="46.542882" lon="12.080606">
        <time>1970-01-01T00:00:00+00:00</time>
        <ele>2443.0</ele>
      </trkpt>
      <trkpt lat="46.54279" lon="12.080591">
        <time>1970-01-01T00:00:00+00:00</time>
        <ele>2434.0</ele>
      </trkpt>
      <trkpt lat="46.542765" lon="12.08081">
        <time>1970-01-01T00:00:00+00:00</time>
        <ele>2428.0</ele>
      </trkpt>
      <trkpt lat="46.542853" lon="12.08117">
        <time>1970-01-01T00:00:00+00:00</time>
        <ele>2428.0</ele>
      </trkpt>
      <trkpt lat="46.542726" lon="12.081128">
        <time>1970-01-01T00:00:00+00:00</time>
        <ele>2421.0</ele>
      </trkpt>
      <trkpt lat="46.542731" lon="12.081325">
        <time>1970-01-01T00:00:00+00:00</time>
        <ele>2413.0</ele>
      </trkpt>
      <trkpt lat="46.542862" lon="12.081544">
        <time>1970-01-01T00:00:00+00:00</time>
        <ele>2406.0</ele>
      </trkpt>
      <trkpt lat="46.542794" lon="12.081678">
        <time>1970-01-01T00:00:00+00:00</time>
        <ele>2392.0</ele>
      </trkpt>
      <trkpt lat="46.542654" lon="12.081523">
        <time>1970-01-01T00:00:00+00:00</time>
        <ele>2398.0</ele>
      </trkpt>
      <trkpt lat="46.542323" lon="12.080973">
        <time>1970-01-01T00:00:00+00:00</time>
        <ele>2380.0</ele>
      </trkpt>
      <trkpt lat="46.542265" lon="12.080641">
        <time>1970-01-01T00:00:00+00:00</time>
        <ele>2376.0</ele>
      </trkpt>
      <trkpt lat="46.542139" lon="12.08014">
        <time>1970-01-01T00:00:00+00:00</time>
        <ele>2379.0</ele>
      </trkpt>
      <trkpt lat="46.541877" lon="12.079815">
        <time>1970-01-01T00:00:00+00:00</time>
        <ele>2374.0</ele>
      </trkpt>
      <trkpt lat="46.541396" lon="12.079427">
        <time>1970-01-01T00:00:00+00:00</time>
        <ele>2349.0</ele>
      </trkpt>
      <trkpt lat="46.541163" lon="12.07906">
        <time>1970-01-01T00:00:00+00:00</time>
        <ele>2347.0</ele>
      </trkpt>
      <trkpt lat="46.540979" lon="12.078883">
        <time>1970-01-01T00:00:00+00:00</time>
        <ele>2336.0</ele>
      </trkpt>
      <trkpt lat="46.540896" lon="12.078643">
        <time>1970-01-01T00:00:00+00:00</time>
        <ele>2336.0</ele>
      </trkpt>
      <trkpt lat="46.540707" lon="12.078601">
        <time>1970-01-01T00:00:00+00:00</time>
        <ele>2313.0</ele>
      </trkpt>
      <trkpt lat="46.540576" lon="12.078206">
        <time>1970-01-01T00:00:00+00:00</time>
        <ele>2316.0</ele>
      </trkpt>
      <trkpt lat="46.540343" lon="12.078079">
        <time>1970-01-01T00:00:00+00:00</time>
        <ele>2306.0</ele>
      </trkpt>
      <trkpt lat="46.539925" lon="12.077966">
        <time>1970-01-01T00:00:00+00:00</time>
        <ele>2298.0</ele>
      </trkpt>
      <trkpt lat="46.539372" lon="12.077556">
        <time>1970-01-01T00:00:00+00:00</time>
        <ele>2291.0</ele>
      </trkpt>
      <trkpt lat="46.539061" lon="12.077203">
        <time>1970-01-01T00:00:00+00:00</time>
        <ele>2285.0</ele>
      </trkpt>
      <trkpt lat="46.537823" lon="12.076625">
        <time>1970-01-01T00:00:00+00:00</time>
        <ele>2260.0</ele>
      </trkpt>
      <trkpt lat="46.537561" lon="12.076603">
        <time>1970-01-01T00:00:00+00:00</time>
        <ele>2260.0</ele>
      </trkpt>
      <trkpt lat="46.53741" lon="12.076688">
        <time>1970-01-01T00:00:00+00:00</time>
        <ele>2261.0</ele>
      </trkpt>
      <trkpt lat="46.537241" lon="12.076981">
        <time>1970-01-01T00:00:00+00:00</time>
        <ele>2255.0</ele>
      </trkpt>
      <trkpt lat="46.537016" lon="12.077096">
        <time>1970-01-01T00:00:00+00:00</time>
        <ele>2259.0</ele>
      </trkpt>
      <trkpt lat="46.536723" lon="12.077081">
        <time>1970-01-01T00:00:00+00:00</time>
        <ele>2268.0</ele>
      </trkpt>
      <trkpt lat="46.536579" lon="12.077118">
        <time>1970-01-01T00:00:00+00:00</time>
        <ele>2270.0</ele>
      </trkpt>
      <trkpt lat="46.536315" lon="12.077376">
        <time>1970-01-01T00:00:00+00:00</time>
        <ele>2266.0</ele>
      </trkpt>
      <trkpt lat="46.536265" lon="12.077456">
        <time>1970-01-01T00:00:00+00:00</time>
        <ele>2264.0</ele>
      </trkpt>
      <trkpt lat="46.536212" lon="12.077619">
        <time>1970-01-01T00:00:00+00:00</time>
        <ele>2260.0</ele>
      </trkpt>
      <trkpt lat="46.536061" lon="12.077574">
        <time>1970-01-01T00:00:00+00:00</time>
        <ele>2254.0</ele>
      </trkpt>
      <trkpt lat="46.536018" lon="12.077685">
        <time>1970-01-01T00:00:00+00:00</time>
        <ele>2250.0</ele>
      </trkpt>
      <trkpt lat="46.535947" lon="12.077665">
        <time>1970-01-01T00:00:00+00:00</time>
        <ele>2245.0</ele>
      </trkpt>
      <trkpt lat="46.535921" lon="12.07757">
        <time>1970-01-01T00:00:00+00:00</time>
        <ele>2244.0</ele>
      </trkpt>
      <trkpt lat="46.535854" lon="12.077482">
        <time>1970-01-01T00:00:00+00:00</time>
        <ele>2240.0</ele>
      </trkpt>
      <trkpt lat="46.535858" lon="12.077168">
        <time>1970-01-01T00:00:00+00:00</time>
        <ele>2243.0</ele>
      </trkpt>
      <trkpt lat="46.535773" lon="12.077109">
        <time>1970-01-01T00:00:00+00:00</time>
        <ele>2237.0</ele>
      </trkpt>
      <trkpt lat="46.535725" lon="12.076997">
        <time>1970-01-01T00:00:00+00:00</time>
        <ele>2235.0</ele>
      </trkpt>
      <trkpt lat="46.535698" lon="12.076842">
        <time>1970-01-01T00:00:00+00:00</time>
        <ele>2236.0</ele>
      </trkpt>
      <trkpt lat="46.535532" lon="12.076851">
        <time>1970-01-01T00:00:00+00:00</time>
        <ele>2225.0</ele>
      </trkpt>
      <trkpt lat="46.535453" lon="12.076662">
        <time>1970-01-01T00:00:00+00:00</time>
        <ele>2223.0</ele>
      </trkpt>
      <trkpt lat="46.535328" lon="12.076454">
        <time>1970-01-01T00:00:00+00:00</time>
        <ele>2217.0</ele>
      </trkpt>
      <trkpt lat="46.535273" lon="12.076222">
        <time>1970-01-01T00:00:00+00:00</time>
        <ele>2218.0</ele>
      </trkpt>
      <trkpt lat="46.535187" lon="12.076139">
        <time>1970-01-01T00:00:00+00:00</time>
        <ele>2212.0</ele>
      </trkpt>
      <trkpt lat="46.535178" lon="12.07596">
        <time>1970-01-01T00:00:00+00:00</time>
        <ele>2213.0</ele>
      </trkpt>
      <trkpt lat="46.535237" lon="12.075762">
        <time>1970-01-01T00:00:00+00:00</time>
        <ele>2216.0</ele>
      </trkpt>
      <trkpt lat="46.535129" lon="12.075975">
        <time>1970-01-01T00:00:00+00:00</time>
        <ele>2210.0</ele>
      </trkpt>
      <trkpt lat="46.535052" lon="12.075985">
        <time>1970-01-01T00:00:00+00:00</time>
        <ele>2206.0</ele>
      </trkpt>
      <trkpt lat="46.53509" lon="12.075885">
        <time>1970-01-01T00:00:00+00:00</time>
        <ele>2208.0</ele>
      </trkpt>
      <trkpt lat="46.535004" lon="12.075881">
        <time>1970-01-01T00:00:00+00:00</time>
        <ele>2203.0</ele>
      </trkpt>
      <trkpt lat="46.535072" lon="12.075722">
        <time>1970-01-01T00:00:00+00:00</time>
        <ele>2204.0</ele>
      </trkpt>
      <trkpt lat="46.534961" lon="12.075782">
        <time>1970-01-01T00:00:00+00:00</time>
        <ele>2199.0</ele>
      </trkpt>
      <trkpt lat="46.534995" lon="12.075607">
        <time>1970-01-01T00:00:00+00:00</time>
        <ele>2197.0</ele>
      </trkpt>
      <trkpt lat="46.534905" lon="12.075646">
        <time>1970-01-01T00:00:00+00:00</time>
        <ele>2193.0</ele>
      </trkpt>
      <trkpt lat="46.534947" lon="12.075561">
        <time>1970-01-01T00:00:00+00:00</time>
        <ele>2193.0</ele>
      </trkpt>
      <trkpt lat="46.534818" lon="12.075538">
        <time>1970-01-01T00:00:00+00:00</time>
        <ele>2186.0</ele>
      </trkpt>
      <trkpt lat="46.534818" lon="12.075428">
        <time>1970-01-01T00:00:00+00:00</time>
        <ele>2184.0</ele>
      </trkpt>
      <trkpt lat="46.534726" lon="12.075404">
        <time>1970-01-01T00:00:00+00:00</time>
        <ele>2180.0</ele>
      </trkpt>
      <trkpt lat="46.534788" lon="12.075294">
        <time>1970-01-01T00:00:00+00:00</time>
        <ele>2179.0</ele>
      </trkpt>
      <trkpt lat="46.534702" lon="12.075212">
        <time>1970-01-01T00:00:00+00:00</time>
        <ele>2173.0</ele>
      </trkpt>
      <trkpt lat="46.534713" lon="12.075122">
        <time>1970-01-01T00:00:00+00:00</time>
        <ele>2169.0</ele>
      </trkpt>
      <trkpt lat="46.534667" lon="12.07509">
        <time>1970-01-01T00:00:00+00:00</time>
        <ele>2167.0</ele>
      </trkpt>
      <trkpt lat="46.534694" lon="12.074999">
        <time>1970-01-01T00:00:00+00:00</time>
        <ele>2163.0</ele>
      </trkpt>
      <trkpt lat="46.53458" lon="12.074838">
        <time>1970-01-01T00:00:00+00:00</time>
        <ele>2152.0</ele>
      </trkpt>
      <trkpt lat="46.534644" lon="12.074789">
        <time>1970-01-01T00:00:00+00:00</time>
        <ele>2152.0</ele>
      </trkpt>
      <trkpt lat="46.534542" lon="12.07471">
        <time>1970-01-01T00:00:00+00:00</time>
        <ele>2145.0</ele>
      </trkpt>
      <trkpt lat="46.534572" lon="12.074586">
        <time>1970-01-01T00:00:00+00:00</time>
        <ele>2140.0</ele>
      </trkpt>
      <trkpt lat="46.534415" lon="12.074488">
        <time>1970-01-01T00:00:00+00:00</time>
        <ele>2128.0</ele>
      </trkpt>
      <trkpt lat="46.534215" lon="12.074426">
        <time>1970-01-01T00:00:00+00:00</time>
        <ele>2108.0</ele>
      </trkpt>
      <trkpt lat="46.534194" lon="12.074402">
        <time>1970-01-01T00:00:00+00:00</time>
        <ele>2105.0</ele>
      </trkpt>
      <trkpt lat="46.534295" lon="12.07434">
        <time>1970-01-01T00:00:00+00:00</time>
        <ele>2112.0</ele>
      </trkpt>
      <trkpt lat="46.534173" lon="12.074243">
        <time>1970-01-01T00:00:00+00:00</time>
        <ele>2097.0</ele>
      </trkpt>
      <trkpt lat="46.534374" lon="12.07415">
        <time>1970-01-01T00:00:00+00:00</time>
        <ele>2112.0</ele>
      </trkpt>
      <trkpt lat="46.53432" lon="12.073798">
        <time>1970-01-01T00:00:00+00:00</time>
        <ele>2101.0</ele>
      </trkpt>
      <trkpt lat="46.534292" lon="12.073916">
        <time>1970-01-01T00:00:00+00:00</time>
        <ele>2099.0</ele>
      </trkpt>
      <trkpt lat="46.534235" lon="12.073841">
        <time>1970-01-01T00:00:00+00:00</time>
        <ele>2094.0</ele>
      </trkpt>
      <trkpt lat="46.534219" lon="12.07391">
        <time>1970-01-01T00:00:00+00:00</time>
        <ele>2093.0</ele>
      </trkpt>
      <trkpt lat="46.534144" lon="12.073735">
        <time>1970-01-01T00:00:00+00:00</time>
        <ele>2085.0</ele>
      </trkpt>
      <trkpt lat="46.534089" lon="12.073749">
        <time>1970-01-01T00:00:00+00:00</time>
        <ele>2080.0</ele>
      </trkpt>
      <trkpt lat="46.534019" lon="12.073587">
        <time>1970-01-01T00:00:00+00:00</time>
        <ele>2074.0</ele>
      </trkpt>
      <trkpt lat="46.533837" lon="12.072957">
        <time>1970-01-01T00:00:00+00:00</time>
        <ele>2062.0</ele>
      </trkpt>
      <trkpt lat="46.533832" lon="12.072771">
        <time>1970-01-01T00:00:00+00:00</time>
        <ele>2062.0</ele>
      </trkpt>
      <trkpt lat="46.533864" lon="12.072477">
        <time>1970-01-01T00:00:00+00:00</time>
        <ele>2065.0</ele>
      </trkpt>
      <trkpt lat="46.533682" lon="12.072023">
        <time>1970-01-01T00:00:00+00:00</time>
        <ele>2054.0</ele>
      </trkpt>
      <trkpt lat="46.533602" lon="12.071751">
        <time>1970-01-01T00:00:00+00:00</time>
        <ele>2052.0</ele>
      </trkpt>
      <trkpt lat="46.533319" lon="12.071505">
        <time>1970-01-01T00:00:00+00:00</time>
        <ele>2045.0</ele>
      </trkpt>
      <trkpt lat="46.533207" lon="12.071372">
        <time>1970-01-01T00:00:00+00:00</time>
        <ele>2043.0</ele>
      </trkpt>
      <trkpt lat="46.532812" lon="12.070669">
        <time>1970-01-01T00:00:00+00:00</time>
        <ele>2041.0</ele>
      </trkpt>
      <trkpt lat="46.532768" lon="12.070611">
        <time>1970-01-01T00:00:00+00:00</time>
        <ele>2041.0</ele>
      </trkpt>
    </trkseg>
  </trk>
</gpx>
